This is the latest recevied weather packets stored in our database for station/object KD4MBW. If no packets are shown the sender has not sent any weather packets the latest 10 day(s).
| Time | Temp. | Humidity | Pressure | Rain* | Wind** | Luminosity | Snow |
|---|---|---|---|---|---|---|---|
| 1787428490 | 32.78° C | 74% | 1014.3 hPa | 0 mm | - | 651 W/m² | - |
| 1787428190 | 32.78° C | 72% | 1014.1 hPa | 0 mm | - | 633 W/m² | - |
| 1787427884 | 32.78° C | 71% | 1014.4 hPa | 0 mm | - | 634 W/m² | - |
| 1787427580 | 32.78° C | 67% | 1014.3 hPa | 0 mm | - | 649 W/m² | - |
| 1787427276 | 32.78° C | 68% | 1014.2 hPa | 0 mm | - | 672 W/m² | - |
| 1787426972 | 32.78° C | 70% | 1014.1 hPa | 0 mm | - | 674 W/m² | - |
| 1787426667 | 32.22° C | 73% | 1014.2 hPa | 0 mm | - | 690 W/m² | - |
| 1787426363 | 32.22° C | 76% | 1014.3 hPa | 0 mm | - | 728 W/m² | - |
| 1787426060 | 32.22° C | 75% | 1014.3 hPa | 0 mm | - | 757 W/m² | - |
| 1787425755 | 32.22° C | 77% | 1014.6 hPa | 0 mm | - | 207 W/m² | - |
| 1787425452 | 31.67° C | 81% | 1014.4 hPa | 0 mm | - | 190 W/m² | - |
| 1787425152 | 32.22° C | 81% | 1014.3 hPa | 0 mm | - | 228 W/m² | - |
| 1787424846 | 32.22° C | 79% | 1014.5 hPa | 0 mm | - | 860 W/m² | - |
| 1787424546 | 31.67° C | 81% | 1014.6 hPa | 0 mm | - | 209 W/m² | - |
| 1787424241 | 32.22° C | 81% | 1014.7 hPa | 0 mm | - | 774 W/m² | - |
| 1787423936 | 31.67° C | 79% | 1014.8 hPa | 0 mm | - | 841 W/m² | - |
| 1787423634 | 32.22° C | 77% | 1015.1 hPa | 0 mm | - | 628 W/m² | - |
| 1787423329 | 32.78° C | 77% | 1015 hPa | 0 mm | - | 807 W/m² | - |
| 1787423025 | 32.22° C | 79% | 1015.1 hPa | 0 mm | - | 808 W/m² | - |
| 1787422720 | 32.22° C | 76% | 1015.1 hPa | 0 mm | - | 822 W/m² | - |
| 1787422416 | 32.22° C | 77% | 1015.2 hPa | 0 mm | - | 286 W/m² | - |
| 1787422111 | 32.22° C | 79% | 1015.3 hPa | 0 mm | - | 411 W/m² | - |
| 1787421808 | 32.78° C | 76% | 1015.1 hPa | 0 mm | - | 258 W/m² | - |
| 1787421502 | 32.22° C | 74% | 1015.2 hPa | 0 mm | - | 799 W/m² | - |
| 1787421198 | 32.22° C | 76% | 1015.2 hPa | 0 mm | - | 222 W/m² | - |
* Rain latest hour (hover to see other rain measurements)
** Current wind speed in m/s (hover to see current wind gust speed)